SHT4J EGLL-EGAC

Flight info

Callsign SHT4J
Flight time N/A
Altitude 34000
Route ULTIB T420 TNT UL28 RODOL UM65 TENSO L603 BELOX DCT REMSI DCT NINEB M148 MAGEE
Aircraft A320/M-SDE3FGIJ1KRWXY/SB1

Departure

Time N/A
Airport London Heathrow Airport (EGLL)

Arrival

Time 2026-04-29 14:37
Airport George Best Belfast City Airport (EGAC)
Time Latitude Longitude Altitude Speed Heading
2026-04-29 13:57 52.03095 -0.63886 25332 ft 451 kts 330°
2026-04-29 13:57 52.05791 -0.66529 25885 ft 454 kts 330°
2026-04-29 13:58 52.08467 -0.69160 26352 ft 457 kts 330°
2026-04-29 13:58 52.11196 -0.71850 26819 ft 460 kts 330°
2026-04-29 13:58 52.13941 -0.74556 27292 ft 463 kts 330°
2026-04-29 13:58 52.16704 -0.77278 27734 ft 465 kts 329°
2026-04-29 13:59 52.19472 -0.80010 28152 ft 467 kts 329°
2026-04-29 13:59 52.22256 -0.82767 28553 ft 469 kts 329°
2026-04-29 13:59 52.25052 -0.85540 28936 ft 471 kts 329°
2026-04-29 13:59 52.27857 -0.88326 29319 ft 473 kts 329°
2026-04-29 14:00 52.30684 -0.91135 29567 ft 479 kts 330°
2026-04-29 14:00 52.33542 -0.93980 29863 ft 483 kts 330°
2026-04-29 14:00 52.36421 -0.96850 30182 ft 486 kts 330°
2026-04-29 14:00 52.39316 -0.99736 30534 ft 489 kts 330°
2026-04-29 14:01 52.42230 -1.02647 30811 ft 491 kts 330°
2026-04-29 14:01 52.45143 -1.05567 31165 ft 491 kts 330°
2026-04-29 14:01 52.48049 -1.08486 31592 ft 490 kts 331°
2026-04-29 14:01 52.50948 -1.11404 32014 ft 489 kts 331°
2026-04-29 14:02 52.53845 -1.14321 32446 ft 487 kts 331°
2026-04-29 14:02 52.56729 -1.17231 32911 ft 485 kts 331°
2026-04-29 14:02 52.59601 -1.20134 33353 ft 484 kts 332°
2026-04-29 14:02 52.62468 -1.23029 33806 ft 483 kts 332°
2026-04-29 14:03 52.65334 -1.25925 34130 ft 486 kts 332°
2026-04-29 14:03 52.68236 -1.28860 34188 ft 493 kts 332°
2026-04-29 14:03 52.74170 -1.34881 34386 ft 509 kts 332°
2026-04-29 14:04 52.80270 -1.41099 34777 ft 511 kts 331°
2026-04-29 14:04 52.83178 -1.44089 36507 ft 468 kts 331°
2026-04-29 14:04 52.85724 -1.46755 39340 ft 392 kts 331°
2026-04-29 14:05 52.87772 -1.48971 41863 ft 317 kts 330°
2026-04-29 14:05 52.89502 -1.50887 42778 ft 297 kts 330°
2026-04-29 14:05 52.91356 -1.52923 40697 ft 356 kts 330°
2026-04-29 14:05 52.93729 -1.55453 37684 ft 453 kts 331°
2026-04-29 14:06 52.96552 -1.58450 36389 ft 495 kts 330°
2026-04-29 14:06 52.99463 -1.61420 36231 ft 484 kts 333°
2026-04-29 14:06 53.02350 -1.64215 35868 ft 477 kts 334°
2026-04-29 14:06 53.05216 -1.66962 35362 ft 475 kts 334°
2026-04-29 14:07 53.08068 -1.69751 34786 ft 476 kts 333°
2026-04-29 14:07 53.10891 -1.72599 34451 ft 475 kts 332°
2026-04-29 14:07 53.13710 -1.75513 34336 ft 477 kts 332°
2026-04-29 14:07 53.16521 -1.78468 34379 ft 479 kts 331°
2026-04-29 14:08 53.22147 -1.84435 34356 ft 479 kts 331°
2026-04-29 14:08 53.27804 -1.90218 34379 ft 477 kts 334°
2026-04-29 14:09 53.33522 -1.95547 34380 ft 476 kts 335°
2026-04-29 14:09 53.39331 -2.00894 34384 ft 477 kts 334°
2026-04-29 14:10 53.45106 -2.06359 34395 ft 477 kts 335°
2026-04-29 14:10 53.50869 -2.11913 34378 ft 478 kts 334°
2026-04-29 14:11 53.56486 -2.17930 34389 ft 483 kts 323°
2026-04-29 14:11 53.60947 -2.26434 34383 ft 489 kts 303°
2026-04-29 14:12 53.62529 -2.31501 34376 ft 490 kts 292°
2026-04-29 14:12 53.63763 -2.36843 34372 ft 490 kts 291°
2026-04-29 14:12 53.66203 -2.47575 34383 ft 490 kts 291°
2026-04-29 14:13 53.68655 -2.58319 34377 ft 491 kts 291°
2026-04-29 14:13 53.71101 -2.69063 34375 ft 491 kts 291°
2026-04-29 14:14 53.73509 -2.79746 34378 ft 490 kts 291°
2026-04-29 14:14 53.75915 -2.90514 34398 ft 489 kts 290°
2026-04-29 14:15 53.78307 -3.01279 34398 ft 489 kts 290°
2026-04-29 14:15 53.80698 -3.12047 34398 ft 489 kts 290°
2026-04-29 14:16 53.83081 -3.22826 34392 ft 490 kts 290°
2026-04-29 14:16 53.84270 -3.28232 34179 ft 490 kts 290°
2026-04-29 14:16 53.85466 -3.33694 32925 ft 502 kts 290°
2026-04-29 14:17 53.86673 -3.39229 32371 ft 498 kts 290°
2026-04-29 14:17 53.87867 -3.44731 31763 ft 495 kts 290°
2026-04-29 14:17 53.89049 -3.50194 31224 ft 491 kts 290°
2026-04-29 14:17 53.90221 -3.55600 30703 ft 487 kts 289°
2026-04-29 14:18 53.91384 -3.60975 30132 ft 484 kts 289°
2026-04-29 14:18 53.92536 -3.66304 29607 ft 478 kts 289°
2026-04-29 14:18 53.93665 -3.71547 29092 ft 473 kts 290°
2026-04-29 14:18 53.94785 -3.76767 28591 ft 467 kts 290°
2026-04-29 14:19 53.95929 -3.81893 28099 ft 462 kts 294°
2026-04-29 14:19 53.97410 -3.86688 27617 ft 456 kts 301°
2026-04-29 14:19 53.98988 -3.91320 27157 ft 451 kts 301°
2026-04-29 14:19 54.00551 -3.95917 26699 ft 447 kts 301°
2026-04-29 14:20 54.02094 -4.00476 26248 ft 443 kts 301°
2026-04-29 14:20 54.03614 -4.04998 25815 ft 439 kts 301°
2026-04-29 14:20 54.05118 -4.09491 25395 ft 435 kts 300°
2026-04-29 14:20 54.06670 -4.13890 24979 ft 431 kts 306°
2026-04-29 14:21 54.08396 -4.18049 24569 ft 429 kts 307°
2026-04-29 14:21 54.10113 -4.22178 24141 ft 426 kts 307°
2026-04-29 14:21 54.11819 -4.26291 23675 ft 424 kts 307°
2026-04-29 14:21 54.12937 -4.28995 23378 ft 421 kts 307°
2026-04-29 14:22 54.14616 -4.33062 22927 ft 417 kts 307°
2026-04-29 14:22 54.16277 -4.37094 22491 ft 413 kts 307°
2026-04-29 14:22 54.17919 -4.41088 22029 ft 409 kts 307°
2026-04-29 14:22 54.19546 -4.45046 21591 ft 406 kts 307°
2026-04-29 14:23 54.21163 -4.48978 21141 ft 403 kts 307°
2026-04-29 14:23 54.22769 -4.52888 20687 ft 401 kts 307°
2026-04-29 14:23 54.24367 -4.56779 20224 ft 399 kts 307°
2026-04-29 14:23 54.25957 -4.60653 19770 ft 397 kts 307°
2026-04-29 14:24 54.27533 -4.64515 19313 ft 396 kts 307°
2026-04-29 14:24 54.29103 -4.68379 18851 ft 395 kts 306°
2026-04-29 14:24 54.30663 -4.72235 18352 ft 393 kts 306°
2026-04-29 14:24 54.32215 -4.76070 17887 ft 390 kts 306°
2026-04-29 14:25 54.33754 -4.79874 17442 ft 387 kts 306°
2026-04-29 14:25 54.35282 -4.83656 16980 ft 385 kts 306°
2026-04-29 14:25 54.36801 -4.87420 16525 ft 382 kts 306°
2026-04-29 14:25 54.38306 -4.91156 16066 ft 380 kts 306°
2026-04-29 14:26 54.39806 -4.94891 15601 ft 378 kts 306°
2026-04-29 14:26 54.41296 -4.98600 15167 ft 377 kts 306°
2026-04-29 14:26 54.42587 -5.02504 14703 ft 376 kts 292°
2026-04-29 14:26 54.43341 -5.06781 14262 ft 374 kts 278°
2026-04-29 14:27 54.43529 -5.11195 13776 ft 368 kts 264°
2026-04-29 14:27 54.43238 -5.15526 13341 ft 363 kts 258°
2026-04-29 14:27 54.42888 -5.19809 12898 ft 361 kts 258°
2026-04-29 14:28 54.42202 -5.28292 12032 ft 356 kts 258°
2026-04-29 14:28 54.41863 -5.32492 11613 ft 354 kts 259°
2026-04-29 14:28 54.41525 -5.36671 11198 ft 352 kts 259°
2026-04-29 14:28 54.41189 -5.40829 10749 ft 351 kts 259°
2026-04-29 14:29 54.40855 -5.44940 10540 ft 342 kts 259°
2026-04-29 14:29 54.40527 -5.48919 10427 ft 331 kts 258°
2026-04-29 14:29 54.40210 -5.52766 10316 ft 321 kts 258°
2026-04-29 14:29 54.39929 -5.56541 10021 ft 318 kts 264°
2026-04-29 14:30 54.40024 -5.60337 9669 ft 319 kts 274°
2026-04-29 14:30 54.40243 -5.64118 9337 ft 317 kts 274°
2026-04-29 14:30 54.40458 -5.67864 9013 ft 315 kts 274°
2026-04-29 14:30 54.40671 -5.71600 8674 ft 313 kts 274°
2026-04-29 14:31 54.40879 -5.75284 8122 ft 309 kts 273°
2026-04-29 14:31 54.41082 -5.78945 7537 ft 307 kts 273°
2026-04-29 14:31 54.41284 -5.82567 6984 ft 303 kts 273°
2026-04-29 14:31 54.41481 -5.86143 6401 ft 301 kts 273°
2026-04-29 14:32 54.41675 -5.89699 5805 ft 297 kts 273°
2026-04-29 14:32 54.41864 -5.93194 5362 ft 289 kts 273°
2026-04-29 14:32 54.42048 -5.96584 4933 ft 282 kts 273°
2026-04-29 14:32 54.42227 -5.99867 4475 ft 275 kts 274°
2026-04-29 14:33 54.42833 -6.02960 4048 ft 272 kts 306°
2026-04-29 14:33 54.44254 -6.04918 3797 ft 257 kts 343°
2026-04-29 14:33 54.45925 -6.05335 3612 ft 240 kts 14°
2026-04-29 14:33 54.47419 -6.04392 3363 ft 224 kts 41°
2026-04-29 14:34 54.48700 -6.02871 3073 ft 223 kts 42°
2026-04-29 14:34 54.49968 -6.01360 2779 ft 221 kts 41°
2026-04-29 14:34 54.51228 -5.99864 2492 ft 220 kts 41°
2026-04-29 14:34 54.52460 -5.98402 2184 ft 208 kts 40°
2026-04-29 14:35 54.53609 -5.97039 1919 ft 193 kts 40°
2026-04-29 14:35 54.54664 -5.95786 1659 ft 176 kts 41°
2026-04-29 14:35 54.55625 -5.94643 1428 ft 158 kts 41°
2026-04-29 14:35 54.56498 -5.93604 1202 ft 146 kts 40°
2026-04-29 14:36 54.57304 -5.92640 1016 ft 137 kts 40°
2026-04-29 14:36 54.58052 -5.91746 819 ft 130 kts 39°
2026-04-29 14:36 54.58803 -5.90848 654 ft 131 kts 39°
2026-04-29 14:36 54.59555 -5.89948 453 ft 134 kts 36°
2026-04-29 14:37 54.60331 -5.89022 294 ft 133 kts 37°
2026-04-29 14:37 54.61097 -5.88109 93 ft 133 kts 37°
2026-04-29 14:37 54.61809 -5.87256 19 ft 109 kts 36°
2026-04-29 14:37 54.62197 -5.86792 19 ft 40 kts 35°
2026-04-29 14:38 54.62381 -5.86575 23 ft 19 kts 40°
2026-04-29 14:38 54.62449 -5.86456 20 ft 11 kts 317°
2026-04-29 14:38 54.62393 -5.86563 25 ft 18 kts 210°
2026-04-29 14:38 54.62265 -5.86707 20 ft 24 kts 214°
2026-04-29 14:39 54.62120 -5.86881 16 ft 28 kts 215°
2026-04-29 14:39 54.61957 -5.87077 16 ft 29 kts 215°
2026-04-29 14:39 54.61839 -5.87170 18 ft 15 kts 164°
2026-04-29 14:39 54.61780 -5.87041 22 ft 12 kts 125°
2026-04-29 14:40 54.61710 -5.87007 22 ft 13 kts 206°
2026-04-29 14:40 54.61653 -5.87078 21 ft 5 kts 214°
2026-04-29 14:40 54.61616 -5.87122 24 ft 8 kts 214°
2026-04-29 14:40 54.61567 -5.87178 22 ft 8 kts 208°
2026-04-29 14:41 54.61519 -5.87161 21 ft 5 kts 155°
2026-04-29 14:41 54.61503 -5.87148 24 ft 1 kts 155°
2026-04-29 14:41 54.61499 -5.87145 21 ft 0 kts 155°